Regional Weather Roundup
Issued by NWS

Home | Current Version | Previous Version | Graphics & Text | Print | Product List | Glossary Off
Versions: 1 2 3 4 5 6 7 8 9 10 11 12 13 14 15 16 17 18 19 20 21 22 23 24 25 26 27 28 29 30 31 32 33 34 35 36 37 38 39 40 41 42 43 44 45 46 47 48 49 50

818
ASUS43 KDMX 070408
RWRIA

WEATHER ROUNDUP FOR IOWA
NATIONAL WEATHER SERVICE DES MOINES IA
1000 PM CST SAT FEB 06 2016

NOTE: "FAIR" INDICATES FEW OR NO CLOUDS BELOW 12,000 FEET WITH NO
SIGNIFICANT WEATHER AND/OR OBSTRUCTIONS TO VISIBILITY.

* - THESE STATIONS ARE NOT NWS STATIONS...THUS NOT UNDER NWS
QUALITY CONTROL.  THEY ALSO DO NOT REPORT WEATHER SUCH
AS PRECIPITATION OR FOG.

IAZ001>003-012>014-020>022-031>034-043>046-070500-
   NORTHWEST IOWA

CITY           SKY/WX    TMP DP  RH WIND       PRES   REMARKS
CARROLL *      CLEAR     36  30  80 SW20G26   29.89F WCI  25
CHEROKEE *     CLOUDY    32  27  80 SW5       29.88R WCI  27
DENISON *      CLEAR     36  25  64 SW12G21   29.89F WCI  27
LE MARS *      MOCLDY    30  30 100 S9        29.88F WCI  22
ORANGE CITY *  MOCLDY    30  28  93 SW9       29.87R WCI  22
SHELDON *      CLOUDY    32  27  80 SW7G13    29.85S WCI  26
SIOUX CITY     CLOUDY    33  25  72 S10       29.89F WCI  25
SPENCER        CLOUDY    32  25  75 SW14      29.85S WCI  22
STORM LAKE *   PTCLDY    32  28  86 SW17      29.87S WCI  21
$$

IAZ055>058-069>071-079>083-090>094-070500-
   SOUTHWEST IOWA

CITY           SKY/WX    TMP DP  RH WIND       PRES   REMARKS
ATLANTIC *     CLEAR     36  28  75 SW15      29.94F WCI  26
AUDUBON *      CLEAR     36  30  80 S15       29.92F WCI  26
CLARINDA *     CLEAR     37  30  75 S10       30.01F WCI  30
COUNCIL BLFS * CLEAR     36  28  75 S9        29.94F WCI  29
CRESTON *      CLEAR     36  30  80 SW16      29.99S WCI  26
HARLAN  *      CLEAR     36  28  75 SW14      29.96F WCI  27
LAMONI         PTCLDY    37  29  72 S12       30.01F WCI  29
RED OAK *      PTCLDY    37  30  75 SW7       29.98S WCI  32
SHENANDOAH *   CLEAR     37  32  81 SW13      29.99F WCI  29
$$

IAZ047>049-059>061-072>074-084-070500-
   CENTRAL IOWA

CITY           SKY/WX    TMP DP  RH WIND       PRES   REMARKS
AMES           CLOUDY    35  29  78 S12       29.94F WCI  27
ANKENY *       CLEAR     37  32  81 S9        29.96F WCI  31
BOONE *        CLEAR     37  30  75 SW20      29.91F WCI  27
CHARITON *     CLOUDY    36  30  80 S13       30.00F WCI  27
DES MOINES     CLOUDY    39  28  64 SW13      29.97F WCI  31
GRINNELL*      CLOUDY    34  30  86 S12       29.99F WCI  25
KNOXVILLE *    MOCLDY    37  30  75 S10       29.99F WCI  30
MARSHALLTOWN   CLOUDY    36  29  75 S20G28    29.94F WCI  25
NEWTON *       MIX PCPN  36  32  87 S15       29.97F WCI  26
PELLA *        PTCLDY    36  30  80 S10       30.01F WCI  28
$$

IAZ004>006-015-016-023>025-035-036-070500-
   NORTH CENTRAL IOWA

CITY           SKY/WX    TMP DP  RH WIND       PRES   REMARKS
ALGONA *       CLOUDY    34  28  80 SW16      29.85F WCI  23
CLARION *      PTCLDY    32  28  86 S14       29.89F WCI  22
ESTHERVILLE    CLOUDY    31  26  82 SW17      29.83F WCI  19
FORT DODGE *   CLOUDY    36  27  69 SW12G18   29.90F WCI  27
MASON CITY     CLOUDY    32  29  88 S12       29.89F WCI  23
FOREST CITY *  MOCLDY    32  30  93 S13       29.87F WCI  22
WEBSTER CITY * CLEAR     34  30  86 SW16      29.88F WCI  23
IOWA FALLS *     N/A     34  32  93 S17       29.92F WCI  23
$$

IAZ007>011-017>019-026>030-037>042-050>054-066-070500-
   NORTHEAST IOWA

CITY           SKY/WX    TMP DP  RH WIND       PRES   REMARKS
CEDAR RAPIDS   CLOUDY    33  31  92 S9        30.00F WCI  25
CHARLES CITY * CLOUDY    32  32 100 S15       29.91F WCI  22
CLINTON *      PTCLDY    31  30  96 S8        30.05F WCI  23
DECORAH *      CLOUDY    32  30  93 S12G18    29.91F WCI  23
DUBUQUE        CLOUDY    31  28  89 S13       30.00F WCI  21
MONTICELLO *   MOCLDY    34  30  86 S9        30.01F WCI  26
OELWEIN *      CLOUDY    30  30 100 S15       29.95F WCI  19
WATERLOO       CLOUDY    33  29  85 S14       29.94F WCI  23
$$

IAZ064-065-067-068-078-070500-
   EAST CENTRAL IOWA

CITY           SKY/WX    TMP DP  RH WIND       PRES   REMARKS
DAVENPORT      PTCLDY    34  29  82 S9        30.05F WCI  27
IOWA CITY      CLOUDY    32  30  92 S3        30.05F
MT. PLEASANT * PTCLDY    37  32  81 S10       30.06F WCI  30
MUSCATINE *    PTCLDY    36  30  80 S7        30.06F WCI  30
QUAD CITIES    PTCLDY    35  28  75 S7        30.06F WCI  29
$$

IAZ062-063-075>077-085>089-095>099-070500-
   SOUTHEAST IOWA

CITY           SKY/WX    TMP DP  RH WIND       PRES   REMARKS
BURLINGTON     PTCLDY    36  30  79 S8        30.07F WCI  30
FAIRFIELD *    MOCLDY    36  30  80 S9        30.04F WCI  29
FORT MADISON * CLEAR     37  30  75 S8        30.08F WCI  31
KEOKUK *       CLEAR     39  30  70 S8        30.08F WCI  34
OSKALOOSA *      N/A     34  30  86 S10       30.03S WCI  26
CENTERVILLE *    N/A    N/A N/A N/A MISG        N/A
OTTUMWA        PTCLDY    34  30  85 S10       30.04S WCI  26
WASHINGTON *   MOCLDY    36  32  87 S10       30.06R WCI  28
$$

ABBREVIATIONS USED IN REMARKS
   TC - TEMPERATURES IN CELSIUS
  WCI - WIND CHILL INDEX
   HX - HEAT INDEX
  VSB - VISIBILITY
$$





USA.gov is the U.S. government's official web portal to all federal, state and local government web resources and services.